BREEZE-M DEB (TANK)

基本信息
目录编号:
47243
目录名称:
BREEZE-M DEB (TANK)
国际标识:
2020-097B
轨道中心:
EARTH
物体状态:
在轨
发射日期:
2020-12-14 UTC
轨道信息
数据来源: 国际轨道数据
星历时间: 2026-07-14T04:16:08+0800
半长轴: 24922.938km
偏心率: 0.7316667
轨道倾角: 58.409°
近地点辐角: 112.754°
升交点赤经: 102.536°
平近点角: 335.506°
近地点: 309.517km
远地点: 36780.085km
周期: 652.617分钟
每日圈数: 2.2065
详细信息
发射场:
PKMTR
轨道高度:
LEO
数据来源:
AOE Integration Group
参考系:
TEME
时间系统:
UTC
历元类型:
SGP4
2D轨道图
3D轨道图
轨道高度分析图
轨道倾角分析图
轨道综合分析图
查看轨道综合分析图